Guernsey, United Kingdom

2:38 PM BST on September 20, 2017 (GMT +0100)
Guernsey

Weather History for EGJB - October, 2012

Change the Weather History Date:

Monday, October 8, 2012

  Actual Average Record
Temperature  
Mean Temperature 58 °F -  
Max Temperature 61 °F 55 °F 69 °F (2010)
Min Temperature 56 °F 50 °F 48 °F (2004)
Degree Days  
Heating Degree Days 6    
Growing Degree Days 8 (Base 50)    
Moisture  
Dew Point 61 °F    
Average Humidity 100    
Maximum Humidity 100    
Minimum Humidity 98    
Precipitation  
Precipitation 0.03 in - - ()
Sea Level Pressure  
Sea Level Pressure 29.92 in    
Wind  
Wind Speed 11 mph ()    
Max Wind Speed 18 mph    
Max Gust Speed -    
Visibility 0.3 miles    
Events Fog , Rain    
Averages and records for this station are not official NWS values.
T = Trace of Precipitation, MM = Missing Value Source: Averaged Metar Reports

Daily Weather History Graph

Daily Weather History Graph

Search for Another Location

Airport or City:

Trip Planner

Search our weather history database for the weather conditions in past years. The results will help you decide how hot, cold, wet, or windy it might be!

Date:

Astronomy

Oct. 08, 2012 Rise Set
Actual Time 7:21 AM BST 6:33 PM BST
Civil Twilight 6:49 AM BST 7:05 PM BST
Nautical Twilight 6:12 AM BST 7:42 PM BST
Astronomical Twilight 5:34 AM BST 8:19 PM BST
Moon No Moon Rise 2:47 PM BST (10/8)
Length of Visible Light 12h 16m
Length of Day
11h 12m
Waning Gibbous, 48% of the Moon is Illuminated
Oct 8
Waning Gibbous
Oct 15
New
Oct 22
First Quarter
Oct 29
Full
Nov 7
Last Quarter

Hourly Weather History & Observations

Time (BST) Temp. Dew Point Humidity Pressure Visibility Wind Dir Wind Speed Gust Speed Precip Events Conditions
1:00 AM 58 °F 58 °F 98% 30.03 in 1 mi SE 15.0 mph - - Rain Heavy Rain
3:50 AM 60.8 °F 60.8 °F 100% 29.95 in 0.2 mi SSE 10.4 mph - N/A Fog Light Drizzle
4:00 AM 60 °F 60 °F 100% 29.96 in 0 mi SSE 10.4 mph - - Rain Light Drizzle
4:20 AM 60.8 °F 60.8 °F 100% 29.95 in 0.5 mi SSE 10.4 mph - N/A Fog , Rain Rain
4:50 AM 60.8 °F 60.8 °F 100% 29.95 in 0.2 mi SSE 8.1 mph - N/A Fog , Rain Rain
5:20 AM 60.8 °F 60.8 °F 100% 29.92 in 0.6 mi SSE 6.9 mph - N/A Fog , Rain Heavy Rain
5:50 AM 60.8 °F 60.8 °F 100% 29.92 in 0.1 mi SSE 8.1 mph - N/A Fog , Rain Light Rain
6:20 AM 60.8 °F 60.8 °F 100% 29.92 in 0.1 mi South 8.1 mph - N/A Fog , Rain Light Rain
6:50 AM 60.8 °F 60.8 °F 100% 29.92 in 0.2 mi SW 11.5 mph - N/A Fog , Rain Light Rain
7:00 AM 61 °F 61 °F 100% 29.92 in 0 mi SW 11.5 mph - - Rain Light Rain
7:20 AM 60.8 °F 60.8 °F 100% 29.89 in 0.2 mi SW 13.8 mph - N/A Fog , Rain Light Rain
7:50 AM 60.8 °F 60.8 °F 100% 29.89 in 0.1 mi SW 15.0 mph - N/A Fog Light Drizzle
8:20 AM 60.8 °F 60.8 °F 100% 29.92 in 0.1 mi SW 16.1 mph - N/A Fog Light Drizzle
8:50 AM 60.8 °F 60.8 °F 100% 29.92 in 0.1 mi SW 18.4 mph - N/A Fog Light Drizzle
9:20 AM 60.8 °F 60.8 °F 100% 29.92 in 0.1 mi SW 13.8 mph - N/A Fog Fog
9:50 AM 60.8 °F 60.8 °F 100% 29.92 in 3.1 mi SW 17.3 mph - N/A   Mostly Cloudy
10:00 AM 61 °F 61 °F 100% 29.94 in 3 mi SW 17.3 mph - - Fog Light Fog
10:20 AM 60.8 °F 60.8 °F 100% 29.92 in 1.2 mi SW 15.0 mph - N/A   Light Drizzle
10:50 AM 60.8 °F 60.8 °F 100% 29.92 in 0.9 mi SW 15.0 mph - N/A   Mostly Cloudy
11:20 AM 60.8 °F 60.8 °F 100% 29.92 in 0.8 mi SW 15.0 mph - N/A   Mist
11:50 AM 60.8 °F 60.8 °F 100% 29.92 in 0.1 mi SW 13.8 mph - N/A Fog Fog
12:20 PM 60.8 °F 60.8 °F 100% 29.92 in 0.1 mi SW 16.1 mph - N/A Fog Fog
12:50 PM 60.8 °F 60.8 °F 100% 29.92 in 0.1 mi SW 15.0 mph - N/A Fog Fog
1:00 PM 62 °F 62 °F 98% 29.92 in 0 mi SW 15.0 mph - - Fog Partial Fog
1:20 PM 60.8 °F 60.8 °F 100% 29.92 in 0.1 mi WSW 13.8 mph - N/A Fog Fog
1:50 PM 60.8 °F 60.8 °F 100% 29.89 in 0.1 mi WSW 13.8 mph - N/A Fog Fog
2:20 PM 60.8 °F 60.8 °F 100% 29.89 in 0.1 mi WSW 15.0 mph - N/A Fog Fog
2:50 PM 62.6 °F 62.6 °F 100% 29.89 in 0.2 mi WSW 15.0 mph - N/A Fog Fog
3:20 PM 60.8 °F 60.8 °F 100% 29.89 in 0.1 mi West 12.7 mph - N/A Fog Fog
3:50 PM 60.8 °F 60.8 °F 100% 29.89 in 0.1 mi West 13.8 mph - N/A Fog Fog
4:00 PM 61 °F 61 °F 100% 29.88 in 0 mi West 13.8 mph - - Fog Partial Fog
4:20 PM 60.8 °F 60.8 °F 100% 29.86 in 0.1 mi West 11.5 mph - N/A Fog Fog
4:50 PM 60.8 °F 60.8 °F 100% 29.86 in 0.1 mi West 10.4 mph - N/A Fog Fog
5:20 PM 60.8 °F 60.8 °F 100% 29.89 in 0.1 mi West 11.5 mph - N/A Fog Fog
5:50 PM 60.8 °F 60.8 °F 100% 29.89 in 0.1 mi West 8.1 mph - N/A Fog Fog
6:20 PM 60.8 °F 60.8 °F 100% 29.89 in 0.1 mi West 8.1 mph - N/A Fog Light Drizzle
6:50 PM 60.8 °F 60.8 °F 100% 29.89 in 0.1 mi WSW 6.9 mph - N/A Fog Light Drizzle
7:00 PM 60 °F 60 °F 100% 29.91 in 0 mi WSW 6.9 mph - - Rain Light Drizzle
7:20 PM 60.8 °F 60.8 °F 100% 29.92 in 0.2 mi West 8.1 mph - N/A Fog Light Drizzle
7:50 PM 60.8 °F 60.8 °F 100% 29.92 in 0.2 mi West 8.1 mph - N/A Fog Light Drizzle
8:20 PM 60.8 °F 60.8 °F 100% 29.92 in 0.6 mi West 6.9 mph - N/A Fog Fog
8:50 PM 60.8 °F 60.8 °F 100% 29.92 in 0.1 mi West 10.4 mph - N/A Fog Light Drizzle
9:20 PM 60.8 °F 60.8 °F 100% 29.92 in 0.1 mi West 10.4 mph - N/A Fog Light Drizzle
9:50 PM 60.8 °F 60.8 °F 100% 29.92 in 0.1 mi West 9.2 mph - N/A Fog Fog
10:00 PM 60 °F 60 °F 100% 29.94 in 0 mi West 9.2 mph - - Fog Partial Fog